{"data":{"norad_id":62896,"epoch":"2026-05-25T00:11:56.478048Z","epoch_age_seconds":70420,"freshness":"FRESH","line1":"1 62896U 25024T   26145.00829257  .00020696  00000+0  75929-3 0  9992","line2":"2 62896  42.9996 253.8583 0001020 278.0014  82.0722 15.27589231 73948","mean_motion":15.27589231,"eccentricity":0.000102,"inclination_deg":42.9996,"raan_deg":253.8583,"arg_perigee_deg":278.0014,"mean_anomaly_deg":82.0722,"bstar":0.00075929,"rev_number":7394,"period_min":94.266179073372,"perigee_km":482.32161708157,"apogee_km":483.72129340645,"semimajor_km":6861.158455244,"source":"CELESTRAK","updated_at":"2026-05-25T13:38:19.791951Z"}}